Notices

What's New in latest Release from April 7th, 2021:

- Updated Glossary, including Speed of Maximum Gust, and Total Hourly Precipitation

- Updated national and regional climate services offices contacts and prices information

- Addition of station inventory lists for 1981-2010, 1971-2000, and 1961-1990 Normals.

If you haven't already, please take our survey and provide feedback about our website: https://eccc.sondage-survey.ca/f/LanguageSelection.aspx?s=442ca660-fcf1-47c0-95a9-59707d6fd709

Hourly Data Report for July 25, 2016

TORONTO CITY
ONTARIO

43°40'00.000" N
79°24'00.000" W
112.50 m
6158355
71508
XTO

Download Data

Hourly Data (July 2016)
Hourly Data Report for July 25, 2016
TIME
LST
Temp Definition
°C
Dew Point Definition
°C
Rel Hum Definition
%
Precip. Amount Definition
mm

Wind Dir Definition
10's deg

Wind Spd Definition
km/h
Visibility Definition
km
Stn Press Definition
kPa
Hmdx Definition


Wind Chill Definition


Weather Definition


00:00 22.8 19.5 82 0.0 LegendMM LegendMM   99.86 30   LegendNANA
01:00 22.8 20.0 84 0.0 LegendMM LegendMM   99.77 30   LegendNANA
02:00 23.0 20.2 85 0.0 LegendMM LegendMM   99.75 31   LegendNANA
03:00 23.2 20.2 83 0.0 LegendMM LegendMM   99.83 31   LegendNANA
04:00 24.2 20.3 79 0.3 LegendMM LegendMM   99.73 32   LegendNANA
05:00 22.4 21.1 92 16.0 LegendMM LegendMM   99.72 31   LegendNANA
06:00 21.7 20.4 92 0.0 LegendMM LegendMM   99.65 30   LegendNANA
07:00 21.4 19.6 90 0.0 LegendMM LegendMM   99.67 29   LegendNANA
08:00 21.7 19.9 89 0.0 LegendMM LegendMM   99.68 29   LegendNANA
09:00 22.7 20.7 89 0.0 LegendMM LegendMM   99.68 31   LegendNANA
10:00 23.4 21.2 87 0.0 LegendMM LegendMM   99.67 32   LegendNANA
11:00 23.3 20.6 85 0.0 LegendMM LegendMM   99.73 31   LegendNANA
12:00 25.8 22.3 81 0.0 LegendMM LegendMM   99.68 35   LegendNANA
13:00 28.0 22.8 73 0.0 LegendMM LegendMM   99.65 38   LegendNANA
14:00 27.8 22.6 73 0.0 LegendMM LegendMM   99.61 38   LegendNANA
15:00 31.0 15.5 39 0.0 LegendMM LegendMM   99.61 35   LegendNANA
16:00 31.1 14.6 37 0.0 LegendMM LegendMM   99.60 35   LegendNANA
17:00 30.1 13.9 37 0.0 LegendMM LegendMM   99.60 33   LegendNANA
18:00 29.7 13.3 37 0.0 LegendMM LegendMM   99.63 33   LegendNANA
19:00 28.7 13.1 38 0.0 LegendMM LegendMM   99.69 32   LegendNANA
20:00 27.3 14.7 46 0.0 LegendMM LegendMM   99.76 31   LegendNANA
21:00 26.2 15.1 50 0.0 LegendMM LegendMM   99.81 30   LegendNANA
22:00 26.0 15.9 54 0.0 LegendMM LegendMM   99.86 31   LegendNANA
23:00 24.2 15.0 57 0.0 LegendMM LegendMM   99.90 28   LegendNANA

Notes on Data Quality.

Legend

  • E = Estimated
  • M = Missing
  • NA = Not Available*
  • [empty] = Indicates an unobserved value
Date modified: